{"data":{"norad_id":48374,"intl_designator":"2021-038X","name":"STARLINK-2604","alt_names":[],"object_type":"PAYLOAD","status":"ACTIVE","operator":null,"country":"US","launch_date":"2021-05-04","launch_site_code":"AFETR","launch_vehicle":null,"mission":null,"orbit_class":"UNKNOWN","rcs_meters":null,"size_class":null,"mass_kg":null,"dimensions":null,"purposes":["comms"],"wikipedia_slug":null,"has_3d_model":false,"image_url":null,"decayed_at":null,"tle_current":{"epoch":"2026-05-25T00:01:00.245856Z","epoch_age_seconds":81870,"freshness":"FRESH","line1":"1 48374U 21038X   26145.00069729  .00001267  00000+0  52568-4 0  9996","line2":"2 48374  53.1610 352.8608 0001176  93.4392 266.6744 15.31717121278912","mean_motion":15.31717121,"eccentricity":0.0001176,"inclination_deg":53.161,"raan_deg":352.8608,"arg_perigee_deg":93.4392,"mean_anomaly_deg":266.6744,"bstar":5.2568e-5,"rev_number":27891,"period_min":94.012137114448,"perigee_km":469.88353695818,"apogee_km":471.49438082371,"semimajor_km":6848.8259588909,"source":"CELESTRAK","updated_at":"2026-05-25T13:38:16.688076Z"}}}